When you browse on this site, cookies collect data to enhance your experience and personalize the content and advertising you see.
Visit our Privacy Policy to learn more. By continuing to use the site, you agree to this use of cookies and data.
  • In Spain
  • List of Countries
  • For 7 days
  • Water Temperature
  • Weather Map
  • Weather Widgets
  • user-avatar
    Login

    Hourly Weather Ipswich

    Today, 17 September, Tuesday

    Time Temperature Precipitation Wind Pressure Humidity
    00:00 +13°C° 0 mm 1 mps 766 mmHg 81%
    01:00 +12°C° 0 mm 1 mps 766 mmHg 84%
    02:00 +12°C° 0 mm 2 mps 766 mmHg 87%
    03:00 +10°C° 0 mm 2 mps 766 mmHg 90%
    04:00 +10°C° 0 mm 3 mps 766 mmHg 90%
    05:00 +10°C° 0 mm 3 mps 766 mmHg 90%
    06:00 +8°C° 0 mm 4 mps 766 mmHg 90%
    07:00 +11°C° 0 mm 4 mps 767 mmHg 82%
    08:00 +12°C° 0 mm 4 mps 767 mmHg 73%
    09:00 +14°C° 0 mm 5 mps 767 mmHg 64%
    10:00 +14°C° 0 mm 5 mps 767 mmHg 61%
    11:00 +15°C° 0 mm 5 mps 767 mmHg 58%
    12:00 +16°C° 0 mm 5 mps 767 mmHg 55%
    13:00 +16°C° 0 mm 5 mps 768 mmHg 55%
    14:00 +15°C° 0 mm 6 mps 768 mmHg 55%
    15:00 +15°C° 0 mm 6 mps 768 mmHg 56%
    16:00 +14°C° 0 mm 6 mps 768 mmHg 59%
    17:00 +13°C° 0 mm 5 mps 768 mmHg 62%
    18:00 +10°C° 0 mm 5 mps 768 mmHg 66%
    19:00 +11°C° 0 mm 4 mps 769 mmHg 69%
    20:00 +10°C° 0 mm 4 mps 769 mmHg 73%
    21:00 +8°C° 0 mm 4 mps 770 mmHg 76%
    22:00 +9°C° 0 mm 3 mps 770 mmHg 78%
    23:00 +9°C° 0 mm 3 mps 770 mmHg 79%

    Tomorrow, 18 September, Wednesday

    Time Temperature Precipitation Wind Pressure Humidity
    00:00 +8°C° 0 mm 3 mps 770 mmHg 81%
    01:00 +8°C° 0 mm 3 mps 770 mmHg 81%
    02:00 +8°C° 0 mm 3 mps 770 mmHg 81%
    03:00 +8°C° 0 mm 3 mps 770 mmHg 80%
    04:00 +8°C° 0 mm 3 mps 770 mmHg 81%
    05:00 +8°C° 0 mm 3 mps 770 mmHg 82%
    06:00 +7°C° 0 mm 3 mps 771 mmHg 82%
    07:00 +9°C° 0 mm 3 mps 771 mmHg 75%
    08:00 +11°C° 0 mm 3 mps 771 mmHg 67%
    09:00 +13°C° 0 mm 4 mps 771 mmHg 60%
    10:00 +14°C° 0 mm 3 mps 771 mmHg 56%
    11:00 +16°C° 0 mm 3 mps 771 mmHg 51%
    12:00 +17°C° 0 mm 3 mps 771 mmHg 47%
    13:00 +17°C° 0 mm 3 mps 771 mmHg 47%
    14:00 +18°C° 0 mm 3 mps 771 mmHg 47%
    15:00 +18°C° 0 mm 3 mps 771 mmHg 47%
    16:00 +17°C° 0 mm 3 mps 771 mmHg 52%
    17:00 +14°C° 0 mm 3 mps 770 mmHg 57%
    18:00 +13°C° 0 mm 3 mps 770 mmHg 63%
    19:00 +12°C° 0 mm 3 mps 771 mmHg 66%
    20:00 +13°C° 0 mm 2 mps 771 mmHg 68%
    21:00 +12°C° 0 mm 2 mps 772 mmHg 71%
    22:00 +12°C° 0 mm 2 mps 772 mmHg 72%
    23:00 +12°C° 0 mm 1 mps 772 mmHg 73%

    Day after tomorrow, 19 September, Thursday

    Time Temperature Precipitation Wind Pressure Humidity
    00:00 +11°C° 0 mm 1 mps 771 mmHg 74%
    01:00 +11°C° 0 mm 1 mps 771 mmHg 75%
    02:00 +11°C° 0 mm 1 mps 771 mmHg 76%
    03:00 +11°C° 0 mm 1 mps 771 mmHg 77%
    04:00 +11°C° 0 mm 1 mps 771 mmHg 77%
    05:00 +11°C° 0 mm 1 mps 771 mmHg 77%
    06:00 +10°C° 0 mm 2 mps 772 mmHg 77%
    07:00 +12°C° 0 mm 1 mps 772 mmHg 71%
    08:00 +14°C° 0 mm 1 mps 772 mmHg 66%
    09:00 +15°C° 0 mm 0 mps 772 mmHg 60%
    10:00 +18°C° 0 mm 1 mps 772 mmHg 57%
    11:00 +19°C° 0 mm 1 mps 772 mmHg 54%
    12:00 +21°C° 0 mm 1 mps 772 mmHg 51%
    13:00 +21°C° 0 mm 1 mps 772 mmHg 51%
    14:00 +20°C° 0 mm 2 mps 772 mmHg 51%
    15:00 +20°C° 0 mm 2 mps 771 mmHg 51%
    16:00 +19°C° 0 mm 2 mps 771 mmHg 57%
    17:00 +17°C° 0 mm 2 mps 771 mmHg 63%
    18:00 +16°C° 0 mm 2 mps 771 mmHg 69%
    19:00 +15°C° 0 mm 2 mps 771 mmHg 72%
    20:00 +14°C° 0 mm 2 mps 772 mmHg 75%
    21:00 +14°C° 0 mm 2 mps 772 mmHg 79%
    22:00 +14°C° 0 mm 2 mps 772 mmHg 80%
    23:00 +13°C° 0 mm 2 mps 772 mmHg 82%

    20 September, Friday

    Time Temperature Precipitation Wind Pressure Humidity
    00:00 +13°C° 0 mm 2 mps 771 mmHg 84%
    01:00 +13°C° 0 mm 2 mps 771 mmHg 86%
    02:00 +13°C° 0 mm 2 mps 771 mmHg 87%
    03:00 +13°C° 0 mm 1 mps 771 mmHg 89%
    04:00 +13°C° 0 mm 2 mps 771 mmHg 90%
    05:00 +12°C° 0 mm 2 mps 771 mmHg 90%
    06:00 +12°C° 0 mm 2 mps 770 mmHg 90%
    07:00 +14°C° 0 mm 2 mps 771 mmHg 84%
    08:00 +16°C° 0 mm 3 mps 771 mmHg 77%
    09:00 +17°C° 0 mm 4 mps 771 mmHg 70%
    10:00 +18°C° 0 mm 4 mps 770 mmHg 66%
    11:00 +17°C° 0 mm 5 mps 770 mmHg 63%
    12:00 +19°C° 0 mm 5 mps 770 mmHg 59%
    13:00 +19°C° 0 mm 5 mps 769 mmHg 58%
    14:00 +17°C° 0 mm 5 mps 768 mmHg 57%
    15:00 +17°C° 0 mm 6 mps 768 mmHg 56%
    16:00 +16°C° 0 mm 6 mps 767 mmHg 60%
    17:00 +15°C° 0 mm 5 mps 767 mmHg 63%
    18:00 +14°C° 0 mm 5 mps 766 mmHg 67%
    19:00 +14°C° 0 mm 6 mps 766 mmHg 68%
    20:00 +14°C° 0 mm 6 mps 766 mmHg 69%
    21:00 +14°C° 0 mm 6 mps 766 mmHg 70%
    22:00 +15°C° 0 mm 6 mps 765 mmHg 69%
    23:00 +15°C° 0 mm 7 mps 765 mmHg 69%

    21 September, Saturday

    Time Temperature Precipitation Wind Pressure Humidity
    00:00 +15°C° 0 mm 7 mps 764 mmHg 68%
    01:00 +14°C° 0 mm 7 mps 764 mmHg 67%
    02:00 +14°C° 0 mm 6 mps 763 mmHg 66%
    03:00 +14°C° 0 mm 6 mps 763 mmHg 65%
    04:00 +13°C° 0 mm 6 mps 762 mmHg 66%
    05:00 +13°C° 0 mm 6 mps 762 mmHg 67%
    06:00 +13°C° 0 mm 6 mps 761 mmHg 68%
    07:00 +14°C° 0 mm 7 mps 761 mmHg 64%
    08:00 +15°C° 0 mm 7 mps 761 mmHg 60%
    09:00 +16°C° 0 mm 7 mps 761 mmHg 55%
    10:00 +17°C° 0 mm 7 mps 760 mmHg 54%
    11:00 +18°C° 0 mm 7 mps 760 mmHg 53%
    12:00 +18°C° 0 mm 7 mps 759 mmHg 52%
    13:00 +19°C° 0 mm 6 mps 759 mmHg 51%
    14:00 +20°C° 0 mm 6 mps 758 mmHg 51%
    15:00 +20°C° 0 mm 6 mps 757 mmHg 51%
    16:00 +20°C° 0 mm 5 mps 757 mmHg 56%
    17:00 +19°C° 0 mm 5 mps 756 mmHg 60%
    18:00 +18°C° 0 mm 4 mps 756 mmHg 65%
    19:00 +19°C° 0 mm 5 mps 756 mmHg 66%
    20:00 +19°C° 0 mm 6 mps 756 mmHg 68%
    21:00 +20°C° 0 mm 6 mps 756 mmHg 69%
    22:00 +20°C° 0.1 mm 6 mps 756 mmHg 74%
    23:00 +20°C° 0.1 mm 6 mps 755 mmHg 79%

    22 September, Sunday

    Time Temperature Precipitation Wind Pressure Humidity
    00:00 +20°C° 0.1 mm 6 mps 755 mmHg 84%
    01:00 +19°C° 0 mm 6 mps 755 mmHg 84%
    02:00 +17°C° 0 mm 5 mps 755 mmHg 84%
    03:00 +16°C° 0 mm 5 mps 756 mmHg 85%
    04:00 +16°C° 0 mm 5 mps 756 mmHg 86%
    05:00 +16°C° 0 mm 5 mps 756 mmHg 88%
    06:00 +16°C° 0 mm 5 mps 756 mmHg 90%
    07:00 +17°C° 0 mm 6 mps 756 mmHg 84%
    08:00 +20°C° 0 mm 6 mps 756 mmHg 79%
    09:00 +21°C° 0 mm 7 mps 756 mmHg 73%
    10:00 +21°C° 0.1 mm 7 mps 756 mmHg 72%
    11:00 +21°C° 0.1 mm 7 mps 756 mmHg 72%
    12:00 +21°C° 0.1 mm 8 mps 756 mmHg 71%
    13:00 +21°C° 0.5 mm 7 mps 756 mmHg 68%
    14:00 +21°C° 0.5 mm 6 mps 756 mmHg 66%
    15:00 +21°C° 0.5 mm 6 mps 756 mmHg 64%
    16:00 +20°C° 0 mm 5 mps 757 mmHg 65%
    17:00 +19°C° 0 mm 5 mps 757 mmHg 65%
    18:00 +18°C° 0 mm 4 mps 758 mmHg 65%
    19:00 +17°C° 0 mm 4 mps 759 mmHg 67%
    20:00 +15°C° 0 mm 4 mps 759 mmHg 69%
    21:00 +14°C° 0 mm 4 mps 760 mmHg 71%
    22:00 +14°C° 0 mm 4 mps 760 mmHg 74%
    23:00 +13°C° 0 mm 4 mps 761 mmHg 77%
    Show more